Location: Recife
(8.0585°S, 34.8848°W)
Time: 11:05:19
(UTC-03:00)

Transit 2A Rocket - Pass Details

Date: 15 April 2026
Orbit: 587 x 895 km, 66.7° (Epoch: 14 May)

Event Time Altitude Azimuth Distance (km) Brightness Sun altitude
Rises 00:06:20 0° 207° (SSW) 3,427 - -78.4°
Reaches altitude 10° 00:08:48 10° 211° (SSW) 2,517 - -77.8°
Maximum altitude 00:14:35 59° 289° (WNW) 1,021 - -76.3°
Drops below altitude 10° 00:20:27 10° 8° (N) 2,551 - -74.9°
Sets 00:22:59 0° 12° (NNE) 3,477 - -74.3°
